TimeEST,TemperatureF,Dew PointF,Humidity,Sea Level PressureIn,VisibilityMPH,Wind Direction,Wind SpeedMPH,Gust SpeedMPH,PrecipitationIn,Events,Conditions,WindDirDegrees,DateUTC
12:15 AM,60.8,-9999,N/A,30.27,10.0,ENE,4.6,-,N/A,,Clear,60,2012-12-04 05:15:00
12:35 AM,60.8,-9999,N/A,30.26,10.0,ENE,4.6,-,N/A,,Clear,60,2012-12-04 05:35:00
12:55 AM,62.6,-9999,N/A,30.26,10.0,ENE,4.6,-,N/A,,Clear,60,2012-12-04 05:55:00
1:15 AM,62.6,-9999,N/A,30.26,10.0,ENE,4.6,-,N/A,,Clear,60,2012-12-04 06:15:00
1:35 AM,62.6,-9999,N/A,30.26,10.0,East,3.5,-,N/A,,Clear,80,2012-12-04 06:35:00
1:55 AM,62.6,-9999,N/A,30.26,10.0,Calm,Calm,-,N/A,,Clear,0,2012-12-04 06:55:00
2:15 AM,60.8,-9999,N/A,30.25,10.0,ENE,3.5,-,N/A,,Clear,70,2012-12-04 07:15:00
2:35 AM,60.8,-9999,N/A,30.25,10.0,East,3.5,-,N/A,,Clear,90,2012-12-04 07:35:00
2:55 AM,60.8,-9999,N/A,30.25,10.0,East,3.5,-,N/A,,Clear,80,2012-12-04 07:55:00
3:15 AM,60.8,-9999,N/A,30.25,10.0,East,3.5,-,N/A,,Clear,80,2012-12-04 08:15:00
3:55 AM,59.0,-9999,N/A,30.25,7.0,Calm,Calm,-,N/A,,Clear,0,2012-12-04 08:55:00
4:15 AM,59.0,-9999,N/A,30.25,10.0,East,4.6,-,N/A,,Clear,100,2012-12-04 09:15:00
4:35 AM,60.8,-9999,N/A,30.25,10.0,East,4.6,-,N/A,,Clear,90,2012-12-04 09:35:00
4:55 AM,60.8,-9999,N/A,30.25,10.0,East,3.5,-,N/A,,Clear,90,2012-12-04 09:55:00
5:15 AM,59.0,-9999,N/A,30.25,10.0,ENE,3.5,-,N/A,,Clear,70,2012-12-04 10:15:00
5:35 AM,59.0,-9999,N/A,30.25,10.0,ENE,3.5,-,N/A,,Clear,70,2012-12-04 10:35:00
5:55 AM,59.0,-9999,N/A,30.25,10.0,East,3.5,-,N/A,,Clear,80,2012-12-04 10:55:00
6:15 AM,59.0,-9999,N/A,30.25,7.0,East,3.5,-,N/A,,Clear,80,2012-12-04 11:15:00
6:35 AM,59.0,-9999,N/A,30.26,7.0,ENE,3.5,-,N/A,,Clear,70,2012-12-04 11:35:00
6:55 AM,59.0,-9999,N/A,30.27,7.0,ENE,3.5,-,N/A,,Clear,70,2012-12-04 11:55:00
7:15 AM,59.0,-9999,N/A,30.28,7.0,ENE,3.5,-,N/A,,Clear,70,2012-12-04 12:15:00
7:35 AM,59.0,-9999,N/A,30.28,10.0,East,4.6,-,N/A,,Clear,80,2012-12-04 12:35:00
7:55 AM,60.8,-9999,N/A,30.29,10.0,Calm,Calm,-,N/A,,Clear,0,2012-12-04 12:55:00
8:15 AM,62.6,-9999,N/A,30.29,10.0,East,3.5,-,N/A,,Clear,80,2012-12-04 13:15:00
8:35 AM,66.2,-9999,N/A,30.30,10.0,East,4.6,-,N/A,,Clear,100,2012-12-04 13:35:00
8:55 AM,69.8,59.0,68,30.30,10.0,East,4.6,-,N/A,,Clear,100,2012-12-04 13:55:00
9:15 AM,71.6,57.2,60,30.30,10.0,East,4.6,-,N/A,,Clear,80,2012-12-04 14:15:00
9:35 AM,73.4,57.2,57,30.31,10.0,ENE,4.6,-,N/A,,Clear,70,2012-12-04 14:35:00
9:55 AM,73.4,55.4,53,30.32,10.0,ENE,4.6,-,N/A,,Clear,70,2012-12-04 14:55:00
10:15 AM,75.2,53.6,47,30.32,10.0,East,3.5,-,N/A,,Clear,100,2012-12-04 15:15:00
10:35 AM,75.2,53.6,47,30.31,10.0,East,6.9,-,N/A,,Clear,80,2012-12-04 15:35:00
10:55 AM,77.0,50.0,39,30.31,10.0,ESE,4.6,-,N/A,,Clear,110,2012-12-04 15:55:00
11:15 AM,77.0,48.2,36,30.30,10.0,East,6.9,-,N/A,,Clear,90,2012-12-04 16:15:00
11:35 AM,78.8,46.4,32,30.29,10.0,SE,5.8,-,N/A,,Clear,140,2012-12-04 16:35:00
11:55 AM,78.8,46.4,32,30.28,10.0,ESE,9.2,-,N/A,,Clear,110,2012-12-04 16:55:00
12:15 PM,78.8,46.4,32,30.27,10.0,East,8.1,-,N/A,,Clear,100,2012-12-04 17:15:00
12:35 PM,78.8,48.2,34,30.26,10.0,SE,6.9,-,N/A,,Clear,140,2012-12-04 17:35:00
12:55 PM,80.6,46.4,30,30.25,10.0,ENE,4.6,-,N/A,,Scattered Clouds,70,2012-12-04 17:55:00
1:15 PM,80.6,46.4,30,30.24,10.0,East,8.1,-,N/A,,Scattered Clouds,100,2012-12-04 18:15:00
1:35 PM,78.8,46.4,32,30.23,10.0,East,9.2,-,N/A,,Scattered Clouds,100,2012-12-04 18:35:00
1:55 PM,80.6,46.4,30,30.22,10.0,ENE,10.4,-,N/A,,Scattered Clouds,70,2012-12-04 18:55:00
2:15 PM,80.6,46.4,30,30.22,10.0,East,9.2,-,N/A,,Mostly Cloudy,80,2012-12-04 19:15:00
2:35 PM,78.8,50.0,36,30.22,10.0,ESE,8.1,-,N/A,,Scattered Clouds,120,2012-12-04 19:35:00
2:55 PM,80.6,50.0,34,30.22,10.0,ESE,4.6,-,N/A,,Scattered Clouds,120,2012-12-04 19:55:00
3:15 PM,80.6,50.0,34,30.21,10.0,ENE,4.6,-,N/A,,Scattered Clouds,60,2012-12-04 20:15:00
3:35 PM,78.8,50.0,36,30.21,10.0,East,5.8,-,N/A,,Mostly Cloudy,100,2012-12-04 20:35:00
3:55 PM,77.0,51.8,41,30.21,10.0,East,4.6,-,N/A,,Mostly Cloudy,100,2012-12-04 20:55:00
4:15 PM,78.8,51.8,39,30.21,10.0,East,4.6,-,N/A,,Scattered Clouds,100,2012-12-04 21:15:00
4:35 PM,77.0,51.8,41,30.21,10.0,East,4.6,-,N/A,,Mostly Cloudy,100,2012-12-04 21:35:00
4:55 PM,77.0,53.6,44,30.22,10.0,East,9.2,-,N/A,,Overcast,90,2012-12-04 21:55:00
5:15 PM,75.2,53.6,47,30.22,10.0,East,4.6,-,N/A,,Overcast,90,2012-12-04 22:15:00
5:35 PM,73.4,53.6,50,30.22,10.0,ESE,6.9,-,N/A,,Mostly Cloudy,110,2012-12-04 22:35:00
5:55 PM,71.6,55.4,57,30.23,10.0,East,5.8,-,N/A,,Scattered Clouds,100,2012-12-04 22:55:00
6:15 PM,71.6,55.4,57,30.23,10.0,East,4.6,-,N/A,,Scattered Clouds,100,2012-12-04 23:15:00
6:35 PM,71.6,55.4,57,30.23,10.0,East,4.6,-,N/A,,Clear,100,2012-12-04 23:35:00
6:55 PM,69.8,57.2,64,30.23,10.0,East,3.5,-,N/A,,Clear,100,2012-12-04 23:55:00
7:15 PM,69.8,57.2,64,30.23,10.0,East,3.5,-,N/A,,Clear,90,2012-12-05 00:15:00
7:35 PM,68.0,57.2,68,30.23,10.0,East,4.6,-,N/A,,Clear,90,2012-12-05 00:35:00
7:55 PM,68.0,57.2,68,30.24,10.0,East,4.6,-,N/A,,Clear,90,2012-12-05 00:55:00
8:15 PM,68.0,57.2,68,30.24,10.0,East,4.6,-,N/A,,Clear,90,2012-12-05 01:15:00
8:35 PM,66.2,57.2,73,30.24,10.0,ENE,3.5,-,N/A,,Clear,70,2012-12-05 01:35:00
8:55 PM,66.2,57.2,73,30.24,10.0,East,4.6,-,N/A,,Clear,80,2012-12-05 01:55:00
9:15 PM,66.2,57.2,73,30.24,10.0,East,3.5,-,N/A,,Clear,80,2012-12-05 02:15:00
9:35 PM,66.2,57.2,73,30.24,10.0,East,3.5,-,N/A,,Clear,80,2012-12-05 02:35:00
9:55 PM,64.4,55.4,73,30.23,10.0,ENE,3.5,-,N/A,,Clear,60,2012-12-05 02:55:00
10:15 PM,62.6,57.2,82,30.23,10.0,ENE,4.6,-,N/A,,Clear,70,2012-12-05 03:15:00
10:35 PM,64.4,57.2,77,30.23,10.0,East,4.6,-,N/A,,Clear,80,2012-12-05 03:35:00
10:55 PM,64.4,57.2,77,30.23,10.0,East,5.8,-,N/A,,Clear,80,2012-12-05 03:55:00
11:15 PM,62.6,55.4,77,30.22,10.0,East,5.8,-,N/A,,Clear,80,2012-12-05 04:15:00
11:35 PM,62.6,57.2,82,30.22,10.0,ENE,4.6,-,N/A,,Clear,70,2012-12-05 04:35:00
11:55 PM,62.6,55.4,77,30.22,10.0,ENE,3.5,-,N/A,,Scattered Clouds,60,2012-12-05 04:55:00